Location: Buckenweiler
(49.0667°N, 10.2500°E)
Time: 19:49:10
(UTC+00:00)

SL-23 DEB - Pass Details

Date: 18 January 2026
Orbit: 423 x 3435 km, 51.4° (Epoch: 15 February)

Event Time Altitude Azimuth Distance (km) Brightness Sun altitude
Exits shadow 05:58:13 16° 273° (W) 1,205 5.0 -10.8°
Maximum altitude 06:00:36 61° 351° (N) 495 3.4 -10.5°
Drops below altitude 10° 06:04:06 10° 74° (ENE) 1,707 7.2 -9.9°
Sets 06:06:36 0° 78° (ENE) 2,815 8.5 -9.5°
